Time,TemperatureF,DewpointF,PressureIn,WindDirection,WindDirectionDegrees,WindSpeedMPH,WindSpeedGustMPH,Humidity,HourlyPrecipIn,Conditions,Clouds,dailyrainin,SolarRadiationWatts/m^2,SoftwareType,DateUTC
2013-02-21 00:02:00,25.9,13.1,29.92,West,281,7.0,17.0,58,0.00,,,0.00,0,Wunderground v.1.15,2013-02-21 05:02:00,
2013-02-21 00:07:00,26.0,13.2,29.92,WSW,252,8.0,8.0,58,0.00,,,0.00,0,Wunderground v.1.15,2013-02-21 05:07:00,
2013-02-21 00:12:00,26.0,13.2,29.92,WNW,287,9.0,9.0,58,0.00,,,0.00,0,Wunderground v.1.15,2013-02-21 05:12:00,
2013-02-21 00:17:00,25.9,13.1,29.92,WSW,255,8.0,8.0,58,0.00,,,0.00,0,Wunderground v.1.15,2013-02-21 05:17:00,
2013-02-21 00:27:00,25.9,13.5,29.92,WSW,240,9.0,9.0,59,0.00,,,0.00,0,Wunderground v.1.15,2013-02-21 05:27:00,
2013-02-21 00:32:00,25.8,13.4,29.92,SW,229,8.0,21.0,59,0.00,,,0.00,0,Wunderground v.1.15,2013-02-21 05:32:00,
2013-02-21 00:42:00,25.7,13.3,29.92,WSW,244,7.0,21.0,59,0.00,,,0.00,0,Wunderground v.1.15,2013-02-21 05:42:00,
2013-02-21 00:47:00,25.6,13.6,29.92,SW,232,6.0,21.0,60,0.00,,,0.00,0,Wunderground v.1.15,2013-02-21 05:47:00,
2013-02-21 01:02:00,25.5,13.5,29.92,WSW,254,7.0,18.0,60,0.00,,,0.00,0,Wunderground v.1.15,2013-02-21 06:02:00,
2013-02-21 01:12:00,25.5,13.5,29.93,SW,234,8.0,18.0,60,0.00,,,0.00,0,Wunderground v.1.15,2013-02-21 06:12:00,
2013-02-21 01:22:00,25.4,13.8,29.93,WSW,254,8.0,22.0,61,0.00,,,0.00,0,Wunderground v.1.15,2013-02-21 06:22:00,
2013-02-21 01:32:00,25.3,13.7,29.93,West,259,8.0,22.0,61,0.00,,,0.00,0,Wunderground v.1.15,2013-02-21 06:32:00,
2013-02-21 01:42:00,25.3,14.1,29.93,SW,220,7.0,17.0,62,0.00,,,0.00,0,Wunderground v.1.15,2013-02-21 06:42:00,
2013-02-21 01:52:00,25.2,14.0,29.92,WSW,258,6.0,17.0,62,0.00,,,0.00,0,Wunderground v.1.15,2013-02-21 06:52:00,
2013-02-21 02:02:00,25.1,13.9,29.92,WSW,244,6.0,17.0,62,0.00,,,0.00,0,Wunderground v.1.15,2013-02-21 07:02:00,
2013-02-21 02:07:00,25.1,13.9,29.92,SW,234,6.0,17.0,62,0.00,,,0.00,0,Wunderground v.1.15,2013-02-21 07:07:00,
2013-02-21 02:17:00,25.1,13.9,29.92,West,265,7.0,17.0,62,0.00,,,0.00,0,Wunderground v.1.15,2013-02-21 07:17:00,
2013-02-21 02:27:00,25.0,13.8,29.93,SW,217,7.0,7.0,62,0.00,,,0.00,0,Wunderground v.1.15,2013-02-21 07:27:00,
2013-02-21 02:32:00,25.0,14.2,29.93,WSW,238,6.0,15.0,63,0.00,,,0.00,0,Wunderground v.1.15,2013-02-21 07:32:00,
2013-02-21 02:42:00,24.9,14.1,29.92,SW,229,5.0,7.0,63,0.00,,,0.00,0,Wunderground v.1.15,2013-02-21 07:42:00,
2013-02-21 02:52:00,25.0,14.2,29.92,SSW,205,7.0,15.0,63,0.00,,,0.00,0,Wunderground v.1.15,2013-02-21 07:52:00,
2013-02-21 03:02:00,25.2,14.7,29.92,SW,226,9.0,15.0,64,0.00,,,0.00,0,Wunderground v.1.15,2013-02-21 08:02:00,
2013-02-21 03:12:00,25.0,14.5,29.92,SW,219,7.0,11.0,64,0.00,,,0.00,0,Wunderground v.1.15,2013-02-21 08:12:00,
2013-02-21 03:22:00,24.8,14.3,29.92,SW,225,6.0,17.0,64,0.00,,,0.00,0,Wunderground v.1.15,2013-02-21 08:22:00,
2013-02-21 03:27:00,24.7,14.6,29.92,WSW,244,7.0,7.0,65,0.00,,,0.00,0,Wunderground v.1.15,2013-02-21 08:27:00,
2013-02-21 03:37:00,24.8,14.3,29.92,SW,215,8.0,8.0,64,0.00,,,0.00,0,Wunderground v.1.15,2013-02-21 08:37:00,
2013-02-21 03:47:00,24.7,14.2,29.93,WSW,242,7.0,7.0,64,0.00,,,0.00,0,Wunderground v.1.15,2013-02-21 08:47:00,
2013-02-21 03:52:00,24.6,14.5,29.93,WSW,240,6.0,14.0,65,0.00,,,0.00,0,Wunderground v.1.15,2013-02-21 08:52:00,
2013-02-21 04:02:00,24.6,14.5,29.93,SSW,211,7.0,14.0,65,0.00,,,0.00,0,Wunderground v.1.15,2013-02-21 09:02:00,
2013-02-21 04:07:00,24.4,14.3,29.92,WSW,240,7.0,14.0,65,0.00,,,0.00,0,Wunderground v.1.15,2013-02-21 09:07:00,
2013-02-21 04:17:00,24.3,14.2,29.93,SW,227,7.0,14.0,65,0.00,,,0.00,0,Wunderground v.1.15,2013-02-21 09:17:00,
2013-02-21 04:27:00,24.2,14.1,29.92,SW,223,7.0,14.0,65,0.00,,,0.00,0,Wunderground v.1.15,2013-02-21 09:27:00,
2013-02-21 04:32:00,24.0,13.9,29.92,SW,216,7.0,14.0,65,0.00,,,0.00,0,Wunderground v.1.15,2013-02-21 09:32:00,
2013-02-21 04:42:00,23.9,14.2,29.92,SW,226,6.0,14.0,66,0.00,,,0.00,0,Wunderground v.1.15,2013-02-21 09:42:00,
2013-02-21 04:52:00,23.8,14.1,29.92,SW,231,7.0,10.0,66,0.00,,,0.00,0,Wunderground v.1.15,2013-02-21 09:52:00,
2013-02-21 04:57:00,23.7,14.0,29.92,West,265,6.0,6.0,66,0.00,,,0.00,0,Wunderground v.1.15,2013-02-21 09:57:00,
2013-02-21 05:07:00,23.7,14.3,29.93,WSW,244,6.0,6.0,67,0.00,,,0.00,0,Wunderground v.1.15,2013-02-21 10:07:00,
2013-02-21 05:17:00,23.6,14.2,29.93,WSW,240,5.0,5.0,67,0.00,,,0.00,0,Wunderground v.1.15,2013-02-21 10:17:00,
2013-02-21 05:27:00,23.8,14.4,29.94,SW,236,6.0,6.0,67,0.00,,,0.00,0,Wunderground v.1.15,2013-02-21 10:27:00,
2013-02-21 05:37:00,23.7,14.3,29.94,WSW,254,5.0,5.0,67,0.00,,,0.00,0,Wunderground v.1.15,2013-02-21 10:37:00,
2013-02-21 05:42:00,24.0,14.6,29.94,WSW,255,6.0,6.0,67,0.00,,,0.00,0,Wunderground v.1.15,2013-02-21 10:42:00,
2013-02-21 05:52:00,24.0,14.6,29.94,West,265,5.0,14.0,67,0.00,,,0.00,0,Wunderground v.1.15,2013-02-21 10:52:00,
2013-02-21 06:02:00,24.3,14.6,29.94,SSW,213,7.0,14.0,66,0.00,,,0.00,0,Wunderground v.1.15,2013-02-21 11:02:00,
2013-02-21 06:12:00,24.5,14.4,29.94,West,277,7.0,14.0,65,0.00,,,0.00,0,Wunderground v.1.15,2013-02-21 11:12:00,
2013-02-21 06:17:00,24.6,14.5,29.94,WSW,246,8.0,8.0,65,0.00,,,0.00,0,Wunderground v.1.15,2013-02-21 11:17:00,
2013-02-21 06:27:00,24.7,14.2,29.94,WSW,250,9.0,9.0,64,0.00,,,0.00,0,Wunderground v.1.15,2013-02-21 11:27:00,
2013-02-21 06:37:00,24.8,14.0,29.94,WSW,244,8.0,17.0,63,0.00,,,0.00,7,Wunderground v.1.15,2013-02-21 11:37:00,
2013-02-21 06:42:00,24.8,14.0,29.94,WSW,246,8.0,17.0,63,0.00,,,0.00,11,Wunderground v.1.15,2013-02-21 11:42:00,
2013-02-21 06:52:00,24.8,14.0,29.94,SW,218,7.0,18.0,63,0.00,,,0.00,19,Wunderground v.1.15,2013-02-21 11:52:00,
2013-02-21 07:02:00,25.0,14.2,29.94,WSW,257,10.0,18.0,63,0.00,,,0.00,28,Wunderground v.1.15,2013-02-21 12:02:00,
2013-02-21 07:12:00,25.2,14.0,29.94,SSW,205,10.0,18.0,62,0.00,,,0.00,70,Wunderground v.1.15,2013-02-21 12:12:00,
2013-02-21 07:22:00,25.4,14.2,29.95,SW,221,7.0,19.0,62,0.00,,,0.00,83,Wunderground v.1.15,2013-02-21 12:22:00,
2013-02-21 07:32:00,25.5,13.5,29.95,SW,225,9.0,9.0,60,0.00,,,0.00,109,Wunderground v.1.15,2013-02-21 12:32:00,
2013-02-21 07:42:00,25.7,13.7,29.95,WSW,246,8.0,19.0,60,0.00,,,0.00,144,Wunderground v.1.15,2013-02-21 12:42:00,
2013-02-21 07:52:00,26.0,13.6,29.94,WSW,252,10.0,21.0,59,0.00,,,0.00,183,Wunderground v.1.15,2013-02-21 12:52:00,
2013-02-21 08:02:00,26.3,13.9,29.94,SW,232,10.0,21.0,59,0.00,,,0.00,223,Wunderground v.1.15,2013-02-21 13:02:00,
2013-02-21 08:12:00,26.7,13.9,29.94,WSW,250,8.0,21.0,58,0.00,,,0.00,257,Wunderground v.1.15,2013-02-21 13:12:00,
2013-02-21 08:22:00,26.9,13.7,29.95,WSW,244,10.0,23.0,57,0.00,,,0.00,290,Wunderground v.1.15,2013-02-21 13:22:00,
2013-02-21 08:32:00,27.4,13.7,29.95,West,267,9.0,23.0,56,0.00,,,0.00,320,Wunderground v.1.15,2013-02-21 13:32:00,
2013-02-21 08:42:00,27.5,13.4,29.94,SW,234,11.0,13.0,55,0.00,,,0.00,350,Wunderground v.1.15,2013-02-21 13:42:00,
2013-02-21 08:47:00,27.7,14.0,29.94,WSW,240,11.0,11.0,56,0.00,,,0.00,367,Wunderground v.1.15,2013-02-21 13:47:00,
2013-02-21 08:57:00,28.1,13.6,29.94,SW,236,10.0,23.0,54,0.00,,,0.00,399,Wunderground v.1.15,2013-02-21 13:57:00,
2013-02-21 09:07:00,28.1,13.6,29.94,SW,233,12.0,12.0,54,0.00,,,0.00,424,Wunderground v.1.15,2013-02-21 14:07:00,
2013-02-21 09:17:00,28.4,13.9,29.93,WSW,249,10.0,23.0,54,0.00,,,0.00,455,Wunderground v.1.15,2013-02-21 14:17:00,
2013-02-21 09:22:00,28.7,14.1,29.93,WSW,253,11.0,24.0,54,0.00,,,0.00,471,Wunderground v.1.15,2013-02-21 14:22:00,
2013-02-21 09:32:00,29.3,14.3,29.92,West,261,9.0,24.0,53,0.00,,,0.00,489,Wunderground v.1.15,2013-02-21 14:32:00,
2013-02-21 09:37:00,29.3,13.8,29.92,West,273,9.0,24.0,52,0.00,,,0.00,501,Wunderground v.1.15,2013-02-21 14:37:00,
2013-02-21 09:42:00,29.5,14.0,29.92,SSW,209,9.0,24.0,52,0.00,,,0.00,513,Wunderground v.1.15,2013-02-21 14:42:00,
2013-02-21 09:52:00,29.2,14.2,29.92,SSW,213,12.0,12.0,53,0.00,,,0.00,533,Wunderground v.1.15,2013-02-21 14:52:00,
2013-02-21 10:02:00,29.3,13.8,29.92,West,269,13.0,27.0,52,0.00,,,0.00,554,Wunderground v.1.15,2013-02-21 15:02:00,
2013-02-21 10:12:00,29.9,14.4,29.93,West,272,12.0,27.0,52,0.00,,,0.00,575,Wunderground v.1.15,2013-02-21 15:12:00,
2013-02-21 10:22:00,30.1,14.1,29.92,West,268,12.0,29.0,51,0.00,,,0.00,591,Wunderground v.1.15,2013-02-21 15:22:00,
2013-02-21 10:32:00,30.3,14.3,29.92,WSW,243,12.0,29.0,51,0.00,,,0.00,608,Wunderground v.1.15,2013-02-21 15:32:00,
2013-02-21 10:37:00,31.0,15.0,29.92,SW,228,10.0,10.0,51,0.00,,,0.00,612,Wunderground v.1.15,2013-02-21 15:37:00,
2013-02-21 10:47:00,30.6,14.1,29.92,WSW,249,12.0,12.0,50,0.00,,,0.00,628,Wunderground v.1.15,2013-02-21 15:47:00,
2013-02-21 10:57:00,31.1,14.1,29.92,WSW,238,12.0,12.0,49,0.00,,,0.00,638,Wunderground v.1.15,2013-02-21 15:57:00,
2013-02-21 11:07:00,31.2,14.7,29.93,West,277,13.0,27.0,50,0.00,,,0.00,650,Wunderground v.1.15,2013-02-21 16:07:00,
2013-02-21 11:17:00,31.6,15.1,29.92,West,269,11.0,27.0,50,0.00,,,0.00,659,Wunderground v.1.15,2013-02-21 16:17:00,
2013-02-21 11:27:00,32.1,15.1,29.92,WSW,238,12.0,12.0,49,0.00,,,0.00,668,Wunderground v.1.15,2013-02-21 16:27:00,
2013-02-21 11:37:00,33.1,16.0,29.92,West,269,9.0,9.0,49,0.00,,,0.00,673,Wunderground v.1.15,2013-02-21 16:37:00,
2013-02-21 11:47:00,32.6,15.5,29.92,SW,229,12.0,12.0,49,0.00,,,0.00,686,Wunderground v.1.15,2013-02-21 16:47:00,
2013-02-21 11:57:00,33.2,15.6,29.93,SW,221,10.0,10.0,48,0.00,,,0.00,643,Wunderground v.1.15,2013-02-21 16:57:00,
2013-02-21 12:07:00,32.8,15.7,29.92,SW,232,12.0,12.0,49,0.00,,,0.00,362,Wunderground v.1.15,2013-02-21 17:07:00,
2013-02-21 12:17:00,32.5,15.4,29.92,SW,227,12.0,31.0,49,0.00,,,0.00,424,Wunderground v.1.15,2013-02-21 17:17:00,
2013-02-21 12:27:00,33.1,15.5,29.91,WSW,254,11.0,26.0,48,0.00,,,0.00,684,Wunderground v.1.15,2013-02-21 17:27:00,
2013-02-21 12:37:00,33.0,15.4,29.90,WNW,300,12.0,12.0,48,0.00,,,0.00,671,Wunderground v.1.15,2013-02-21 17:37:00,
2013-02-21 12:47:00,33.6,16.5,29.90,West,277,12.0,26.0,49,0.00,,,0.00,668,Wunderground v.1.15,2013-02-21 17:47:00,
2013-02-21 12:57:00,33.8,15.7,29.90,SW,228,11.0,26.0,47,0.00,,,0.00,656,Wunderground v.1.15,2013-02-21 17:57:00,
2013-02-21 13:07:00,34.4,16.2,29.90,WSW,245,11.0,11.0,47,0.00,,,0.00,645,Wunderground v.1.15,2013-02-21 18:07:00,
2013-02-21 13:17:00,33.7,15.6,29.90,SW,230,14.0,14.0,47,0.00,,,0.00,636,Wunderground v.1.15,2013-02-21 18:17:00,
2013-02-21 13:27:00,33.9,15.3,29.90,WNW,297,14.0,28.0,46,0.00,,,0.00,629,Wunderground v.1.15,2013-02-21 18:27:00,
2013-02-21 13:32:00,34.6,16.4,29.90,SW,236,12.0,28.0,47,0.00,,,0.00,615,Wunderground v.1.15,2013-02-21 18:32:00,
2013-02-21 13:42:00,34.6,15.9,29.89,West,280,11.0,28.0,46,0.00,,,0.00,599,Wunderground v.1.15,2013-02-21 18:42:00,
2013-02-21 13:52:00,34.7,16.0,29.90,SW,233,12.0,28.0,46,0.00,,,0.00,582,Wunderground v.1.15,2013-02-21 18:52:00,
2013-02-21 14:02:00,34.9,16.2,29.90,SW,235,12.0,26.0,46,0.00,,,0.00,561,Wunderground v.1.15,2013-02-21 19:02:00,
2013-02-21 14:12:00,35.0,16.3,29.90,WSW,242,11.0,26.0,46,0.00,,,0.00,540,Wunderground v.1.15,2013-02-21 19:12:00,
2013-02-21 14:22:00,35.3,16.6,29.90,West,272,10.0,24.0,46,0.00,,,0.00,519,Wunderground v.1.15,2013-02-21 19:22:00,
2013-02-21 14:32:00,35.3,16.6,29.91,NW,306,10.0,24.0,46,0.00,,,0.00,499,Wunderground v.1.15,2013-02-21 19:32:00,
2013-02-21 14:37:00,35.3,17.1,29.91,West,272,12.0,12.0,47,0.00,,,0.00,483,Wunderground v.1.15,2013-02-21 19:37:00,
2013-02-21 14:47:00,35.1,16.9,29.91,WNW,298,12.0,12.0,47,0.00,,,0.00,457,Wunderground v.1.15,2013-02-21 19:47:00,
2013-02-21 14:57:00,35.3,16.6,29.91,West,263,11.0,11.0,46,0.00,,,0.00,432,Wunderground v.1.15,2013-02-21 19:57:00,
2013-02-21 15:02:00,35.5,16.7,29.91,West,267,11.0,25.0,46,0.00,,,0.00,420,Wunderground v.1.15,2013-02-21 20:02:00,
2013-02-21 15:12:00,35.6,17.3,29.91,WSW,240,11.0,25.0,47,0.00,,,0.00,392,Wunderground v.1.15,2013-02-21 20:12:00,
2013-02-21 15:22:00,35.7,17.9,29.92,WSW,246,11.0,22.0,48,0.00,,,0.00,362,Wunderground v.1.15,2013-02-21 20:22:00,
2013-02-21 15:27:00,35.5,17.7,29.92,West,271,11.0,30.0,48,0.00,,,0.00,346,Wunderground v.1.15,2013-02-21 20:27:00,
2013-02-21 15:37:00,35.5,17.7,29.92,WSW,248,11.0,11.0,48,0.00,,,0.00,316,Wunderground v.1.15,2013-02-21 20:37:00,
2013-02-21 15:47:00,35.4,17.6,29.92,WSW,252,12.0,12.0,48,0.00,,,0.00,287,Wunderground v.1.15,2013-02-21 20:47:00,
2013-02-21 15:52:00,35.6,17.8,29.93,SW,234,11.0,28.0,48,0.00,,,0.00,274,Wunderground v.1.15,2013-02-21 20:52:00,
2013-02-21 16:02:00,35.2,17.9,29.93,SW,226,13.0,28.0,49,0.00,,,0.00,234,Wunderground v.1.15,2013-02-21 21:02:00,
2013-02-21 16:12:00,35.2,18.4,29.94,West,266,10.0,28.0,50,0.00,,,0.00,195,Wunderground v.1.15,2013-02-21 21:12:00,
2013-02-21 16:22:00,35.2,18.4,29.95,SW,224,10.0,30.0,50,0.00,,,0.00,158,Wunderground v.1.15,2013-02-21 21:22:00,
2013-02-21 16:32:00,35.0,18.2,29.96,West,270,11.0,30.0,50,0.00,,,0.00,118,Wunderground v.1.15,2013-02-21 21:32:00,
2013-02-21 16:42:00,34.2,17.9,29.96,West,265,14.0,30.0,51,0.00,,,0.00,84,Wunderground v.1.15,2013-02-21 21:42:00,
2013-02-21 16:52:00,33.7,17.5,29.97,West,265,12.0,25.0,51,0.00,,,0.00,54,Wunderground v.1.15,2013-02-21 21:52:00,
2013-02-21 17:02:00,33.4,17.6,29.97,WNW,283,10.0,18.0,52,0.00,,,0.00,30,Wunderground v.1.15,2013-02-21 22:02:00,
2013-02-21 17:07:00,33.2,17.5,29.98,NNW,342,11.0,25.0,52,0.00,,,0.00,21,Wunderground v.1.15,2013-02-21 22:07:00,
2013-02-21 17:17:00,32.9,17.2,29.99,WNW,285,12.0,12.0,52,0.00,,,0.00,16,Wunderground v.1.15,2013-02-21 22:17:00,
2013-02-21 17:27:00,32.5,17.2,30.00,NW,319,11.0,27.0,53,0.00,,,0.00,11,Wunderground v.1.15,2013-02-21 22:27:00,
2013-02-21 17:37:00,32.1,17.7,30.00,NNW,341,11.0,11.0,55,0.00,,,0.00,0,Wunderground v.1.15,2013-02-21 22:37:00,
2013-02-21 17:47:00,31.8,17.5,30.01,West,261,10.0,10.0,55,0.00,,,0.00,0,Wunderground v.1.15,2013-02-21 22:47:00,
2013-02-21 17:57:00,31.5,17.2,30.02,WNW,292,10.0,10.0,55,0.00,,,0.00,0,Wunderground v.1.15,2013-02-21 22:57:00,
2013-02-21 18:07:00,31.2,17.3,30.03,WNW,290,10.0,10.0,56,0.00,,,0.00,0,Wunderground v.1.15,2013-02-21 23:07:00,
2013-02-21 18:17:00,30.9,17.4,30.03,WSW,247,11.0,11.0,57,0.00,,,0.00,0,Wunderground v.1.15,2013-02-21 23:17:00,
2013-02-21 18:22:00,30.7,16.8,30.04,WNW,300,10.0,22.0,56,0.00,,,0.00,0,Wunderground v.1.15,2013-02-21 23:22:00,
2013-02-21 18:32:00,30.3,16.9,30.04,West,275,10.0,16.0,57,0.00,,,0.00,0,Wunderground v.1.15,2013-02-21 23:32:00,
2013-02-21 18:37:00,30.2,16.8,30.04,West,277,11.0,22.0,57,0.00,,,0.00,0,Wunderground v.1.15,2013-02-21 23:37:00,
2013-02-21 18:47:00,29.8,16.8,30.04,SW,229,11.0,11.0,58,0.00,,,0.00,0,Wunderground v.1.15,2013-02-21 23:47:00,
2013-02-21 18:57:00,29.5,16.9,30.05,NNW,344,10.0,23.0,59,0.00,,,0.00,0,Wunderground v.1.15,2013-02-21 23:57:00,
2013-02-21 19:07:00,29.3,16.3,30.05,WNW,291,12.0,12.0,58,0.00,,,0.00,0,Wunderground v.1.15,2013-02-22 00:07:00,
2013-02-21 19:17:00,29.0,16.1,30.06,NW,315,13.0,13.0,58,0.00,,,0.00,0,Wunderground v.1.15,2013-02-22 00:17:00,
2013-02-21 19:22:00,28.8,16.3,30.07,WNW,284,11.0,14.0,59,0.00,,,0.00,0,Wunderground v.1.15,2013-02-22 00:22:00,
2013-02-21 19:32:00,28.5,16.4,30.08,WNW,291,9.0,24.0,60,0.00,,,0.00,0,Wunderground v.1.15,2013-02-22 00:32:00,
2013-02-21 19:37:00,28.3,16.2,30.08,WNW,302,10.0,24.0,60,0.00,,,0.00,0,Wunderground v.1.15,2013-02-22 00:37:00,
2013-02-21 19:47:00,27.9,15.8,30.08,NW,313,12.0,12.0,60,0.00,,,0.00,0,Wunderground v.1.15,2013-02-22 00:47:00,
2013-02-21 19:57:00,27.8,16.1,30.10,WNW,287,11.0,23.0,61,0.00,,,0.00,0,Wunderground v.1.15,2013-02-22 00:57:00,
2013-02-21 20:07:00,27.7,16.0,30.11,WNW,302,11.0,11.0,61,0.00,,,0.00,0,Wunderground v.1.15,2013-02-22 01:07:00,
2013-02-21 20:17:00,27.6,15.9,30.11,WNW,287,11.0,11.0,61,0.00,,,0.00,0,Wunderground v.1.15,2013-02-22 01:17:00,
2013-02-21 20:22:00,27.6,16.3,30.11,WNW,303,11.0,21.0,62,0.00,,,0.00,0,Wunderground v.1.15,2013-02-22 01:22:00,
2013-02-21 20:32:00,27.6,16.3,30.13,WSW,257,10.0,21.0,62,0.00,,,0.00,0,Wunderground v.1.15,2013-02-22 01:32:00,
2013-02-21 20:42:00,27.5,16.5,30.15,West,277,11.0,21.0,63,0.00,,,0.00,0,Wunderground v.1.15,2013-02-22 01:42:00,
2013-02-21 20:47:00,27.4,16.4,30.15,West,281,9.0,9.0,63,0.00,,,0.00,0,Wunderground v.1.15,2013-02-22 01:47:00,
2013-02-21 20:57:00,27.3,16.4,30.15,West,274,9.0,9.0,63,0.00,,,0.00,0,Wunderground v.1.15,2013-02-22 01:57:00,
2013-02-21 21:07:00,27.1,16.5,30.16,NW,306,8.0,8.0,64,0.00,,,0.00,0,Wunderground v.1.15,2013-02-22 02:07:00,
2013-02-21 21:12:00,27.0,16.4,30.17,WNW,284,8.0,25.0,64,0.00,,,0.00,0,Wunderground v.1.15,2013-02-22 02:12:00,
2013-02-21 21:22:00,26.8,16.6,30.17,WNW,290,7.0,20.0,65,0.00,,,0.00,0,Wunderground v.1.15,2013-02-22 02:22:00,
2013-02-21 21:32:00,26.9,16.7,30.18,West,269,8.0,20.0,65,0.00,,,0.00,0,Wunderground v.1.15,2013-02-22 02:32:00,
2013-02-21 21:37:00,26.9,16.7,30.18,West,268,9.0,9.0,65,0.00,,,0.00,0,Wunderground v.1.15,2013-02-22 02:37:00,
2013-02-21 21:47:00,26.9,16.7,30.18,West,278,8.0,20.0,65,0.00,,,0.00,0,Wunderground v.1.15,2013-02-22 02:47:00,
2013-02-21 21:57:00,26.8,17.0,30.19,WNW,285,9.0,18.0,66,0.00,,,0.00,0,Wunderground v.1.15,2013-02-22 02:57:00,
2013-02-21 22:07:00,26.8,17.0,30.20,West,280,8.0,8.0,66,0.00,,,0.00,0,Wunderground v.1.15,2013-02-22 03:07:00,
2013-02-21 22:17:00,26.8,17.3,30.19,WNW,282,8.0,18.0,67,0.00,,,0.00,0,Wunderground v.1.15,2013-02-22 03:17:00,
2013-02-21 22:22:00,26.8,17.3,30.20,WNW,282,8.0,19.0,67,0.00,,,0.00,0,Wunderground v.1.15,2013-02-22 03:22:00,
2013-02-21 22:32:00,26.7,17.2,30.20,West,281,8.0,19.0,67,0.00,,,0.00,0,Wunderground v.1.15,2013-02-22 03:32:00,
2013-02-21 22:42:00,26.6,17.1,30.21,NW,315,9.0,19.0,67,0.00,,,0.00,0,Wunderground v.1.15,2013-02-22 03:42:00,
2013-02-21 22:52:00,26.5,17.4,30.20,NNW,331,10.0,18.0,68,0.00,,,0.00,0,Wunderground v.1.15,2013-02-22 03:52:00,
2013-02-21 23:02:00,26.4,17.6,30.21,West,281,8.0,18.0,69,0.00,,,0.00,0,Wunderground v.1.15,2013-02-22 04:02:00,
2013-02-21 23:12:00,26.5,18.0,30.20,West,263,7.0,18.0,70,0.00,,,0.00,0,Wunderground v.1.15,2013-02-22 04:12:00,
2013-02-21 23:22:00,26.8,18.3,30.22,NW,315,10.0,11.0,70,0.00,,,0.00,0,Wunderground v.1.15,2013-02-22 04:22:00,
2013-02-21 23:27:00,26.9,18.4,30.22,WNW,288,9.0,18.0,70,0.00,,,0.00,0,Wunderground v.1.15,2013-02-22 04:27:00,
2013-02-21 23:37:00,27.1,18.6,30.22,West,262,10.0,10.0,70,0.00,,,0.00,0,Wunderground v.1.15,2013-02-22 04:37:00,
2013-02-21 23:47:00,27.0,18.5,30.23,NNW,343,9.0,18.0,70,0.00,,,0.00,0,Wunderground v.1.15,2013-02-22 04:47:00,
2013-02-21 23:57:00,27.0,18.5,30.23,WNW,286,10.0,17.0,70,0.00,,,0.00,0,Wunderground v.1.15,2013-02-22 04:57:00,